[[{"header":{"parameterUnit":"m.s-1","parameterCategory":1,"la1":30.2991,"la2":30.254,"lo1":-89.0895,"lo2":-89.0444,"dy":0.0017,"dx":0.0017,"nx":28,"ny":28,"refTime":"2025-05-29T09:00:00:Z","depth":0,"parameterNumber":2,"parameterNumberName":"U-component_of_WINDS"},"data":[0,0,0,0,0,0,0,0,0,0,0,0,0,0,0,0,0,0,0,0,0,0,0,0,0,0,0,0,0,0,0,0,0,0,0,0,0,0,0,0,0,0,0,0,0,0,0,0,0,0,0,0,0,0,0,0,0,0,3.5866,3.5867,0,3.5953,3.5954,3.5955,3.5887,3.5884,3.5881,3.5878,3.5975,3.598,3.5985,0,0,0,0,0,0,0,0,0,0,0,0,0,3.565,3.5654,3.5866,3.5867,3.5868,3.5953,3.5954,3.5956,3.5887,3.5884,3.588,3.5877,3.5973,3.598,3.5986,0,0,0,0,0,0,0,0,0,0,0,0,0,3.5741,3.5655,3.5866,3.5844,3.5843,3.5953,3.5954,3.5956,3.5888,3.5884,3.5879,3.5875,3.5971,3.5979,3.5987,3.6125,0,0,3.6011,3.6015,0,0,0,0,0,0,0,0,3.5736,3.5749,3.5846,3.5846,3.5845,3.5904,3.5913,3.6013,3.5889,3.5871,3.5878,3.5873,3.5956,3.5965,3.5991,3.6129,3.6133,3.6012,3.6017,3.602,3.6022,0,0,0,0,0,0,0,3.573,3.5745,3.5901,3.5848,3.5847,3.5833,3.5841,3.5932,3.5938,3.5873,3.5868,3.5879,3.5954,3.5983,3.5993,3.6135,3.6012,3.6019,3.6024,3.6027,3.6396,3.6401,0,0,0,0,0,0,3.5725,3.574,3.5898,3.5903,3.5778,3.5841,3.585,3.589,3.5936,3.5939,3.5882,3.5875,3.5972,3.5983,3.5996,3.6164,3.602,3.6028,3.6032,3.6391,3.6397,3.6403,0,0,0,0,0,0,3.572,3.5739,3.5895,3.5821,3.5839,3.5849,3.5895,3.5894,3.5923,3.5943,3.5945,3.591,3.5969,3.5985,3.6094,3.6166,3.6031,3.6039,3.6385,3.6393,3.64,3.6499,0,0,0,0,0,0,3.5714,3.5738,3.5788,3.5822,3.5843,3.5989,3.5899,3.5899,3.5936,3.5927,3.597,3.5973,3.5967,3.6082,3.6102,3.6175,3.6045,3.6379,3.6389,3.6397,3.649,3.6509,3.6526,0,0,0,0,0,3.5707,3.5813,3.5791,3.5811,3.5906,3.5993,3.6005,3.5993,3.5942,3.5994,3.6008,3.5972,3.6154,3.6094,3.6115,3.6192,3.6374,3.6386,3.6397,3.6481,3.6505,3.6526,0,0,0,0,0,0,3.579,3.5817,3.5793,3.5913,3.5951,3.5981,3.6046,3.6018,3.6073,3.6063,3.6048,3.6059,3.6175,3.6194,3.6126,3.633,3.6257,3.6273,3.6314,3.6337,3.6355,3.6349,3.6051,0,0,0,0,0,3.5821,3.5887,3.5908,3.6013,3.6033,3.6037,3.6074,3.6061,3.6101,3.6117,3.6139,3.6181,3.6248,3.6293,3.6356,3.6491,3.6502,3.6555,3.6573,3.6588,3.6603,3.6681,3.6706,3.644,3.6439,3.6439,0,0,3.5889,3.5912,3.5955,3.603,3.6058,3.613,3.6051,3.6129,3.6183,3.613,3.6235,3.6252,3.6299,3.6423,3.6479,3.6443,3.6679,3.6602,3.6614,3.6621,3.6695,3.672,3.6743,3.6447,3.6446,3.6445,0,0,3.6049,3.6071,3.6162,3.6192,3.6234,3.6237,3.6259,3.6293,3.6303,3.6407,3.637,3.6436,3.655,3.6586,3.6619,3.6796,3.6766,3.6817,3.6913,3.6989,3.701,3.7029,3.7096,3.712,3.6831,3.6831,3.6832,0,3.6128,3.6232,3.6213,3.6295,3.6332,3.6285,3.638,3.641,3.6472,3.65,3.6457,3.6603,3.663,3.6765,3.6808,3.6835,3.6863,3.6813,3.7008,3.7027,3.7044,3.7108,3.7133,3.6838,3.6837,3.6836,3.6836,0,3.6329,3.6402,3.6471,3.6531,3.6575,3.6663,3.6661,3.6708,3.6692,3.67,3.681,3.6841,3.6911,3.6941,3.6927,3.7075,3.7052,3.7009,3.6935,3.7076,3.7136,3.716,3.6846,3.6844,3.6842,3.6841,0,0,3.6545,3.6594,3.662,3.6648,3.6693,3.675,3.6838,3.6904,3.6947,3.6992,3.7068,3.7167,3.7129,3.7167,3.7156,3.7222,3.7366,3.7172,3.7173,3.7211,3.7536,3.757,3.7598,3.7345,3.7349,3.7353,3.7533,0,3.671,3.686,3.6847,3.6991,3.706,3.7018,3.7095,3.7133,3.7143,3.7206,3.7218,3.729,3.7231,3.7255,3.7318,3.7335,3.7431,3.7321,3.742,3.7424,3.7413,3.7629,3.7665,3.7834,3.7556,3.756,3.7563,0,3.6923,3.6974,3.7124,3.7161,3.719,3.7259,3.7321,3.738,3.7424,3.7427,3.747,3.7449,3.7542,3.7464,3.7593,3.7519,3.7558,3.7573,3.7579,3.7591,3.7504,3.7651,3.7887,3.7914,3.7599,3.7596,3.7593,0,3.707,3.7177,3.7281,3.7306,3.7351,3.7401,3.7423,3.7461,3.7503,3.7558,3.7586,3.7652,3.7689,3.7742,3.7741,3.7683,3.7874,3.7795,3.7883,3.7884,3.7928,3.7926,3.8178,3.7948,3.7947,3.7947,3.7946,0,3.7258,3.7353,3.7349,3.7413,3.752,3.7505,3.7612,3.7628,3.7663,3.7733,3.77,3.7767,3.776,3.7829,3.7829,3.7939,3.7955,3.7963,3.7963,3.7968,3.7968,3.7997,3.7986,3.7953,3.7952,3.7951,3.7949,0,3.7442,3.7442,3.7554,3.7587,3.7598,3.7675,3.7705,3.7768,3.7775,3.7865,3.7885,3.7898,3.7977,3.7981,3.8072,3.8073,3.8208,3.8193,3.8193,3.8192,3.8281,3.8274,3.8563,3.8602,3.8343,3.8346,3.8348,0,3.7564,3.7635,3.7676,3.772,3.7744,3.7814,3.7857,3.7846,3.7893,3.7949,3.8007,3.8083,3.8143,3.8273,3.8293,3.8364,3.8352,3.8449,3.8363,3.8368,3.8359,3.8356,3.8365,3.8467,3.8469,3.8472,3.8474,0,3.7781,3.7778,3.7839,3.7902,3.7954,3.8003,3.8049,3.8087,3.8082,3.8137,3.8217,3.8264,3.8357,3.8435,3.8504,3.853,3.8504,3.85,3.8525,3.8533,3.8532,3.8538,3.8243,3.8494,3.8492,3.8491,3.849,3.8489,3.794,3.8004,3.8043,3.8114,3.8146,3.8191,3.8253,3.8268,3.8333,3.8407,3.8397,3.8488,3.8533,3.8623,3.8655,3.8727,3.8695,3.873,3.874,3.8749,3.8761,3.8517,3.874,3.8739,3.8738,3.8738,3.8738,0,3.816,3.8183,3.8248,3.8313,3.8369,3.8335,3.8385,3.8436,3.8515,3.8558,3.8618,3.8712,3.8788,3.8813,3.8888,3.8941,3.8931,3.8962,3.896,3.8967,3.8784,3.8756,3.8969,3.8969,3.8969,3.8969,3.8969,3.8969,3.8281,3.8387,3.8389,3.8514,3.8537,3.8623,3.8655,3.8697,3.8732,3.8837,3.8899,3.8914,3.8952,3.9029,3.9098,3.9104,3.9135,3.9172,3.9173,3.9002,3.8979,3.8957,3.8932,3.9177,3.9178,3.9351,3.9352,3.9354]},{"header":{"parameterUnit":"m.s-1","parameterCategory":1,"la1":30.2991,"la2":30.254,"lo1":-89.0895,"lo2":-89.0444,"dy":0.0017,"dx":0.0017,"nx":28,"ny":28,"refTime":"2025-05-29T09:00:00:Z","depth":0,"parameterNumber":3,"parameterNumberName":"V-component_of_WINDS"},"data":[0,0,0,0,0,0,0,0,0,0,0,0,0,0,0,0,0,0,0,0,0,0,0,0,0,0,0,0,0,0,0,0,0,0,0,0,0,0,0,0,0,0,0,0,0,0,0,0,0,0,0,0,0,0,0,0,0,0,0.775,0.7751,0,0.7878,0.7879,0.7881,0.7837,0.7834,0.7832,0.7829,0.7962,0.7968,0.7975,0,0,0,0,0,0,0,0,0,0,0,0,0,0.7469,0.7475,0.775,0.7752,0.7753,0.7877,0.7879,0.7881,0.7838,0.7834,0.7831,0.7828,0.796,0.7968,0.7975,0,0,0,0,0,0,0,0,0,0,0,0,0,0.7594,0.7477,0.775,0.7746,0.7747,0.7877,0.7879,0.7881,0.7838,0.7834,0.783,0.7826,0.7958,0.7967,0.7976,0.8117,0,0,0.8004,0.8008,0,0,0,0,0,0,0,0,0.7587,0.7604,0.7745,0.7747,0.7748,0.7837,0.7829,0.7961,0.7839,0.7804,0.7829,0.7824,0.7924,0.7936,0.7969,0.8124,0.8129,0.8005,0.8011,0.8015,0.8017,0,0,0,0,0,0,0,0.7578,0.7598,0.7801,0.7747,0.7749,0.7739,0.7752,0.7854,0.7886,0.7807,0.7804,0.7819,0.7924,0.7961,0.7972,0.8131,0.8005,0.8013,0.8019,0.8023,0.8405,0.8409,0,0,0,0,0,0,0.7569,0.7591,0.7796,0.7804,0.7655,0.7747,0.7762,0.7813,0.7885,0.7892,0.7823,0.7817,0.7947,0.7961,0.7977,0.8145,0.8015,0.8023,0.8029,0.84,0.8406,0.8411,0,0,0,0,0,0,0.7563,0.7587,0.7791,0.7697,0.7722,0.7757,0.7814,0.7818,0.7854,0.7897,0.7903,0.7854,0.7944,0.7964,0.8082,0.8149,0.8028,0.8036,0.8395,0.8402,0.8408,0.8483,0,0,0,0,0,0,0.7555,0.7585,0.764,0.7699,0.7728,0.7895,0.7819,0.7823,0.7869,0.7863,0.7928,0.7935,0.7942,0.8068,0.8091,0.8159,0.8043,0.8389,0.8398,0.8406,0.8475,0.8492,0.8506,0,0,0,0,0,0.7545,0.7657,0.7643,0.7668,0.7796,0.7898,0.7915,0.7921,0.7875,0.793,0.7957,0.7932,0.8138,0.8081,0.8106,0.8178,0.8385,0.8395,0.8405,0.8468,0.8488,0.8506,0,0,0,0,0,0,0.7606,0.7665,0.7649,0.7784,0.7836,0.7891,0.796,0.7943,0.801,0.8002,0.8007,0.8022,0.8143,0.8172,0.8108,0.8317,0.8254,0.827,0.8293,0.8313,0.8329,0.8319,0.8051,0,0,0,0,0,0.7635,0.7713,0.776,0.7874,0.7901,0.7926,0.7971,0.7971,0.8026,0.8048,0.8084,0.8139,0.8215,0.8266,0.8339,0.8479,0.8491,0.8541,0.8556,0.8569,0.8583,0.8656,0.8678,0.8445,0.8445,0.8444,0,0,0.7696,0.7738,0.7787,0.7887,0.7928,0.8008,0.7945,0.8034,0.8093,0.8062,0.8175,0.8203,0.8265,0.8393,0.8452,0.8422,0.865,0.8582,0.8592,0.8599,0.8669,0.8691,0.8711,0.8452,0.845,0.8449,0,0,0.7848,0.7888,0.7986,0.8027,0.8089,0.8104,0.8128,0.8185,0.8202,0.8315,0.8292,0.8363,0.8496,0.8539,0.8579,0.8745,0.8724,0.8768,0.885,0.8922,0.894,0.8956,0.9014,0.9034,0.8782,0.8782,0.8782,0,0.7916,0.8036,0.8039,0.8128,0.8172,0.8146,0.8244,0.8285,0.8368,0.8399,0.8364,0.8527,0.8567,0.8704,0.8744,0.8778,0.8804,0.8761,0.8937,0.8954,0.8969,0.9023,0.9045,0.8787,0.8786,0.8786,0.8785,0,0.8116,0.8199,0.8271,0.835,0.8402,0.8496,0.8512,0.8565,0.8559,0.8578,0.8693,0.8739,0.8819,0.8852,0.8849,0.8989,0.8968,0.8935,0.8872,0.8996,0.9047,0.9068,0.8794,0.8792,0.8791,0.8789,0,0,0.8311,0.8388,0.8414,0.8448,0.8513,0.8578,0.867,0.8747,0.8791,0.8849,0.8925,0.9037,0.9006,0.9051,0.9052,0.9115,0.924,0.9074,0.9075,0.9102,0.9394,0.9418,0.9442,0.9227,0.9231,0.9234,0.9389,0,0.8467,0.8627,0.8631,0.8778,0.8854,0.8829,0.8909,0.8957,0.8977,0.9044,0.9066,0.9144,0.9098,0.9125,0.9186,0.9212,0.9299,0.9201,0.9297,0.93,0.9281,0.9469,0.9495,0.9639,0.9409,0.9412,0.9415,0,0.8671,0.8732,0.8886,0.8938,0.897,0.9041,0.9111,0.9176,0.923,0.9239,0.9288,0.9279,0.9372,0.9306,0.9433,0.9367,0.9406,0.9425,0.943,0.9439,0.9365,0.9481,0.9685,0.9706,0.9447,0.9444,0.9442,0,0.8795,0.8917,0.9024,0.9055,0.9118,0.9168,0.9197,0.9246,0.9292,0.9353,0.9382,0.9454,0.9494,0.9549,0.9559,0.951,0.9686,0.9622,0.9696,0.9696,0.9734,0.9731,0.9945,0.9762,0.9761,0.9761,0.976,0,0.8968,0.9063,0.908,0.9147,0.9251,0.9255,0.9358,0.9383,0.9427,0.9497,0.948,0.9546,0.9556,0.9624,0.9633,0.9735,0.9754,0.9764,0.9765,0.9765,0.9763,0.979,0.978,0.9767,0.9765,0.9764,0.9763,0,0.9125,0.9141,0.9255,0.9305,0.932,0.9395,0.9437,0.9499,0.9516,0.9605,0.9626,0.9653,0.9732,0.9747,0.9842,0.9847,0.9969,0.9961,0.9951,0.9949,1.0022,1.0015,1.026,1.0292,1.0089,1.0091,1.0092,0,0.9233,0.9305,0.9362,0.9407,0.9437,0.9511,0.9556,0.9562,0.961,0.9674,0.9729,0.9806,0.9868,0.9995,1.0023,1.0094,1.0087,1.0168,1.0098,1.0094,1.0086,1.0081,1.0087,1.0181,1.0183,1.0185,1.0187,0,0.9424,0.9427,0.9493,0.9562,0.9616,0.9671,0.9722,0.976,0.9772,0.9827,0.9907,0.9954,1.0049,1.0125,1.0196,1.0225,1.0208,1.0208,1.0229,1.0229,1.022,1.0224,0.9986,1.0203,1.0201,1.02,1.0199,1.0198,0.9559,0.962,0.9669,0.9742,0.9781,0.9829,0.989,0.9913,0.998,1.0056,1.0056,1.0142,1.0192,1.0285,1.0318,1.0386,1.036,1.0391,1.0398,1.0406,1.0411,1.0209,1.0399,1.0399,1.0398,1.0398,1.0398,0,0.9747,0.9776,0.9843,0.9915,0.9972,0.995,1.0005,1.0055,1.0131,1.0178,1.0239,1.0329,1.0402,1.0435,1.0507,1.0555,1.0548,1.0573,1.0569,1.0576,1.0431,1.0405,1.0577,1.0577,1.0577,1.0577,1.0577,1.0577,0.9851,0.9953,0.9963,1.0084,1.0112,1.0197,1.023,1.0273,1.0311,1.0412,1.0472,1.0493,1.0534,1.0608,1.0674,1.0681,1.0708,1.0736,1.074,1.0605,1.0586,1.0569,1.0544,1.0742,1.0743,1.0879,1.088,1.0881]}]]